Weather History for Antigo, WI

Change the Weather History Date:

Saturday, February 22, 2014

  Actual Average Record
Temperature  
Mean Temperature 9 °F -  
Max Temperature 14 °F 32 °F 51 °F (1961)
Min Temperature 3 °F 12 °F -20 °F (1965)
Degree Days  
Heating Degree Days 56    
Moisture  
Dew Point 3 °F    
Average Humidity 77    
Maximum Humidity 84    
Minimum Humidity 67    
Precipitation  
Precipitation 0.00 in - - ()
Sea Level Pressure  
Sea Level Pressure 29.73 in    
Wind  
Wind Speed 18 mph (West)    
Max Wind Speed 23 mph    
Max Gust Speed 30 mph    
Visibility 8 miles    
Events      
Averages and records for this station are not official NWS values.
T = Trace of Precipitation, MM = Missing Value Source: NWS Daily Summary

Daily Weather History Graph

Daily Weather History Graph

Search for Another Location

Airport:

Trip Planner

Search our weather history database for the weather conditions in past years. The results will help you decide how hot, cold, wet, or windy it might be!

Date:

Astronomy

Feb. 22, 2014 Rise Set
Actual Time 6:46 AM CST 5:34 PM CST
Civil Twilight 6:16 AM CST 6:04 PM CST
Nautical Twilight 5:42 AM CST 6:38 PM CST
Astronomical Twilight 5:08 AM CST 7:12 PM CST
Moon 12:48 AM CST (2/22) 10:37 AM CST (2/22)
Length of Visible Light 11h 47m
Length of Day
10h 47m
Waning Gibbous, 50% of the Moon is Illuminated
Feb 22
Waning Gibbous
Mar 1
New
Mar 8
First Quarter
Mar 16
Full
Mar 23
Last Quarter

Hourly Weather History & Observations

Time (CST) Temp. Windchill Dew Point Humidity Pressure Visibility Wind Dir Wind Speed Gust Speed Precip Events Conditions
12:15 AM 8.6 °F -10.5 °F 4.1 °F 82% 29.53 in 7.0 mi West 19.6 mph 25.3 mph N/A   Unknown
12:35 AM 8.6 °F -10.5 °F 4.1 °F 82% 29.53 in 5.0 mi West 19.6 mph 29.9 mph N/A   Mist
12:55 AM 8.4 °F -10.3 °F 3.9 °F 82% 29.54 in 5.0 mi West 18.4 mph 25.3 mph N/A   Mist
1:15 AM 8.2 °F -11.0 °F 3.7 °F 82% 29.55 in 5.0 mi West 19.6 mph 28.8 mph N/A   Mist
1:35 AM 8.2 °F -9.4 °F 3.7 °F 82% 29.55 in 5.0 mi West 16.1 mph 24.2 mph N/A   Mist
1:55 AM 8.1 °F -10.2 °F 3.6 °F 82% 29.56 in 7.0 mi West 17.3 mph 26.5 mph N/A   Unknown
2:15 AM 8.1 °F -10.2 °F 3.7 °F 83% 29.56 in 7.0 mi West 17.3 mph 25.3 mph N/A   Unknown
2:35 AM 7.7 °F -9.5 °F 3.7 °F 84% 29.57 in 5.0 mi West 15.0 mph 19.6 mph N/A   Mist
2:55 AM 7.7 °F -10.1 °F 3.2 °F 82% 29.57 in 5.0 mi West 16.1 mph 26.5 mph N/A   Haze
3:15 AM 7.5 °F -13.3 °F 3.2 °F 82% 29.58 in 3.0 mi West 23.0 mph 28.8 mph N/A   Mist
3:35 AM 7.3 °F -13.1 °F 3.0 °F 82% 29.59 in 3.0 mi West 21.9 mph 28.8 mph N/A   Mist
3:55 AM 7.2 °F -12.4 °F 2.7 °F 82% 29.60 in 4.0 mi West 19.6 mph 29.9 mph N/A   Haze
4:15 AM 7.0 °F -12.6 °F 2.8 °F 83% 29.61 in 4.0 mi West 19.6 mph 25.3 mph N/A   Mist
4:35 AM 6.8 °F -12.4 °F 2.3 °F 82% 29.62 in 5.0 mi West 18.4 mph 24.2 mph N/A   Haze
4:55 AM 6.8 °F -11.8 °F 2.3 °F 82% 29.63 in 5.0 mi West 17.3 mph 24.2 mph N/A   Haze
5:15 AM 6.6 °F -12.6 °F 2.3 °F 82% 29.64 in 4.0 mi West 18.4 mph 24.2 mph N/A   Mist
5:35 AM 6.3 °F -12.0 °F 1.9 °F 82% 29.64 in 5.0 mi West 16.1 mph 21.9 mph N/A   Mist
5:55 AM 5.5 °F -14.0 °F 1.2 °F 82% 29.64 in 7.0 mi West 18.4 mph 25.3 mph N/A   Unknown
6:15 AM 5.0 °F -14.2 °F 0.5 °F 82% 29.65 in 7.0 mi West 17.3 mph 25.3 mph N/A   Unknown
6:35 AM 4.6 °F -14.0 °F 0.5 °F 83% 29.65 in 10.0 mi West 16.1 mph 21.9 mph N/A   Unknown
6:55 AM 4.8 °F -14.9 °F 0.5 °F 82% 29.66 in 7.0 mi West 18.4 mph 23.0 mph N/A   Unknown
7:15 AM 4.6 °F -15.2 °F 0.5 °F 83% 29.68 in 5.0 mi West 18.4 mph 21.9 mph N/A   Mist
7:35 AM 4.5 °F -14.9 °F 0.1 °F 82% 29.68 in 5.0 mi West 17.3 mph 24.2 mph N/A   Mist
7:55 AM 4.8 °F -14.4 °F 0.1 °F 81% 29.69 in 7.0 mi West 17.3 mph 24.2 mph N/A   Unknown
8:15 AM 5.0 °F -14.2 °F 0.1 °F 80% 29.70 in 7.0 mi West 17.3 mph 25.3 mph N/A   Unknown
8:35 AM 5.5 °F -14.0 °F 0.1 °F 78% 29.70 in 5.0 mi West 18.4 mph 27.6 mph N/A   Haze
8:55 AM 5.9 °F -13.0 °F 0.5 °F 78% 29.71 in 7.0 mi West 17.3 mph 25.3 mph N/A   Unknown
9:15 AM 6.6 °F -13.6 °F 0.5 °F 76% 29.72 in 7.0 mi West 20.7 mph 26.5 mph N/A   Unknown
9:35 AM 7.2 °F -11.4 °F 0.5 °F 74% 29.72 in 7.0 mi West 17.3 mph 25.3 mph N/A   Unknown
9:55 AM 8.2 °F -10.5 °F 1.4 °F 74% 29.73 in 7.0 mi West 18.4 mph 28.8 mph N/A   Unknown
10:15 AM 8.6 °F -10.0 °F 1.9 °F 74% 29.73 in 7.0 mi West 18.4 mph 26.5 mph N/A   Unknown
10:35 AM 9.7 °F -8.6 °F 2.3 °F 72% 29.72 in 10.0 mi West 18.4 mph 26.5 mph N/A   Unknown
10:55 AM 10.8 °F -6.7 °F 2.7 °F 70% 29.73 in 10.0 mi West 17.3 mph 23.0 mph N/A   Unknown
11:15 AM 11.3 °F -5.5 °F 3.0 °F 69% 29.73 in 7.0 mi West 16.1 mph 24.2 mph N/A   Unknown
11:35 AM 12.0 °F -5.6 °F 3.6 °F 69% 29.74 in 7.0 mi West 18.4 mph 27.6 mph N/A   Unknown
11:55 AM 13.1 °F -4.6 °F 3.9 °F 67% 29.74 in 10.0 mi West 19.6 mph 28.8 mph N/A   Unknown
12:15 PM 13.6 °F -3.5 °F 4.6 °F 67% 29.74 in 7.0 mi West 18.4 mph 25.3 mph N/A   Unknown
12:35 PM 14.0 °F -2.0 °F 5.4 °F 69% 29.74 in 7.0 mi WSW 16.1 mph 29.9 mph N/A   Unknown
12:55 PM 14.4 °F -3.8 °F 5.2 °F 67% 29.74 in 7.0 mi West 21.9 mph 25.3 mph N/A   Unknown
1:15 PM 14.7 °F -3.4 °F 5.7 °F 68% 29.74 in 10.0 mi West 21.9 mph 26.5 mph N/A   Unknown
1:35 PM 14.7 °F -3.8 °F 5.7 °F 68% 29.74 in 7.0 mi WSW 23.0 mph 28.8 mph N/A   Unknown
1:55 PM 14.7 °F -2.0 °F 5.9 °F 68% 29.74 in 10.0 mi West 18.4 mph 26.5 mph N/A   Unknown
2:15 PM 14.2 °F -3.6 °F 5.9 °F 70% 29.74 in 10.0 mi WSW 20.7 mph 26.5 mph N/A   Unknown
2:35 PM 14.0 °F -2.0 °F 5.7 °F 70% 29.75 in 7.0 mi WSW 16.1 mph 26.5 mph N/A   Unknown
2:55 PM 13.6 °F -3.9 °F 5.9 °F 71% 29.75 in 7.0 mi West 19.6 mph 26.5 mph N/A   Unknown
3:15 PM 13.6 °F -3.9 °F 5.7 °F 71% 29.76 in 7.0 mi WSW 19.6 mph 27.6 mph N/A   Unknown
3:35 PM 13.1 °F -5.1 °F 5.0 °F 70% 29.76 in 10.0 mi West 20.7 mph 25.3 mph N/A   Unknown
3:55 PM 12.9 °F -5.7 °F 5.2 °F 71% 29.78 in 10.0 mi West 21.9 mph 26.5 mph N/A   Unknown
4:15 PM 12.6 °F -4.9 °F 5.0 °F 72% 29.78 in 10.0 mi WSW 18.4 mph 27.6 mph N/A   Unknown
4:35 PM 12.0 °F -5.6 °F 4.8 °F 73% 29.78 in 10.0 mi West 18.4 mph 25.3 mph N/A   Unknown
4:55 PM 11.3 °F -7.0 °F 4.8 °F 75% 29.79 in 7.0 mi West 19.6 mph 24.2 mph N/A   Unknown
5:15 PM 10.4 °F -7.2 °F 4.5 °F 77% 29.80 in 10.0 mi WSW 17.3 mph - N/A   Unknown
5:35 PM 10.2 °F -7.4 °F 4.5 °F 78% 29.80 in 10.0 mi West 17.3 mph 23.0 mph N/A   Unknown
5:55 PM 10.0 °F -7.6 °F 4.1 °F 77% 29.81 in 10.0 mi West 17.3 mph 24.2 mph N/A   Unknown
6:15 PM 9.5 °F -6.6 °F 3.9 °F 78% 29.81 in 10.0 mi West 13.8 mph 20.7 mph N/A   Unknown
6:35 PM 9.1 °F -8.2 °F 3.7 °F 79% 29.82 in 10.0 mi West 16.1 mph 24.2 mph N/A   Unknown
6:55 PM 9.0 °F -8.5 °F 3.7 °F 79% 29.83 in 10.0 mi West 16.1 mph - N/A   Unknown
7:15 PM 8.6 °F -8.9 °F 3.4 °F 79% 29.83 in 10.0 mi West 16.1 mph 24.2 mph N/A   Unknown
7:35 PM 8.4 °F -8.6 °F 3.2 °F 79% 29.84 in 10.0 mi West 15.0 mph - N/A   Unknown
7:55 PM 8.1 °F -9.6 °F 2.8 °F 79% 29.84 in 10.0 mi West 16.1 mph 23.0 mph N/A   Unknown
8:15 PM 7.7 °F -10.1 °F 2.7 °F 80% 29.85 in 10.0 mi West 16.1 mph - N/A   Unknown
8:35 PM 7.5 °F -10.3 °F 2.3 °F 79% 29.86 in 10.0 mi West 16.1 mph - N/A   Unknown
8:55 PM 6.8 °F -10.0 °F 2.1 °F 81% 29.87 in 10.0 mi West 13.8 mph 23.0 mph N/A   Unknown
9:15 PM 6.6 °F -10.9 °F 1.8 °F 80% 29.87 in 10.0 mi West 15.0 mph 23.0 mph N/A   Unknown
9:35 PM 6.1 °F -12.2 °F 1.4 °F 81% 29.88 in 10.0 mi West 16.1 mph 24.2 mph N/A   Unknown
9:55 PM 5.9 °F -12.4 °F 1.0 °F 80% 29.88 in 10.0 mi West 16.1 mph 21.9 mph N/A   Unknown
10:15 PM 5.5 °F -10.9 °F 0.5 °F 80% 29.88 in 10.0 mi West 12.7 mph 19.6 mph N/A   Unknown
10:35 PM 5.2 °F -11.4 °F 0.5 °F 81% 29.88 in 10.0 mi West 12.7 mph 20.7 mph N/A   Unknown
10:55 PM 4.8 °F -11.8 °F -0.0 °F 80% 29.88 in 10.0 mi West 12.7 mph 18.4 mph N/A   Unknown
11:15 PM 4.1 °F -12.0 °F -0.4 °F 82% 29.88 in 10.0 mi West 11.5 mph 19.6 mph N/A   Unknown
11:35 PM 4.3 °F -11.7 °F -0.4 °F 81% 29.88 in 10.0 mi West 11.5 mph 18.4 mph N/A   Unknown
11:55 PM 3.7 °F -13.2 °F -0.9 °F 81% 29.88 in 10.0 mi West 12.7 mph - N/A   Unknown